Tracking 17925 objects as of 20-February-2017
HD Live streaming from Space Station
objects crossing your sky now

THORAD AGENA D DEB

Track THORAD AGENA D DEB now!
10-day predictions


NORAD ID: 4935
Int'l Code: 1970-025GB
Perigee: 912.5 km
Apogee: 1,008.6 km
Inclination: 99.8 °
Period: 104.1 minutes
Semi major axis: 7331 km
RCS: 0.0346 m2 (small)
Launch date: April 8, 1970
Source: United States (US)
Launch site: AIR FORCE WESTERN TEST RANGE (AFWTR)

Note: This is SATELLITE DEBRIS
Your satellite tracking list
Your tracking list is empty





NASA's NSSDC Master Catalog

Two Line Element Set (TLE):
1  4935U 70025GB  17049.73547359 +.00000153 +00000-0 +18242-3 0  9998
2  4935 099.8355 319.1758 0065519 280.2796 103.5455 13.82959762345856
Source of the keplerian elements: AFSPC